0 HST 1 20580U 90037B 25304.00141855 .00010055 00000-0 35776-3 0 9994 2 20580 28.4669 203.2120 0002032 113.4940 246.5868 15.27238201753455 0 ISS (ZARYA) 1 25544U 98067A 25304.16626396 .00017194 00000-0 31236-3 0 9993 2 25544 51.6343 353.2496 0004911 359.9780 0.1208 15.49645314536256 0 CXO 1 25867U 99040B 25306.94914393 .00000860 00000-0 00000-0 0 9992 2 25867 52.2511 124.0340 8210183 310.6072 0.2637 0.37806171 16460